Previsão horária em Abdulmambetovo

Hoje, 13 Abril, Terça-feira

Tempo Temperatura Precipitação Vento Pressão Humidade
00:00 +4°C° 0 mm 2 m/s 742 mmHg 98%
01:00 +3°C° 0 mm 2 m/s 742 mmHg 99%
02:00 +4°C° 0 mm 2 m/s 742 mmHg 99%
03:00 +4°C° 0 mm 2 m/s 742 mmHg 99%
04:00 +4°C° 0 mm 2 m/s 742 mmHg 99%
05:00 +4°C° 0 mm 2 m/s 743 mmHg 99%
06:00 +5°C° 0 mm 2 m/s 743 mmHg 99%
07:00 +5°C° 0 mm 2 m/s 743 mmHg 99%
08:00 +6°C° 0 mm 2 m/s 743 mmHg 94%
09:00 +7°C° 0 mm 2 m/s 743 mmHg 89%
10:00 +8°C° 0 mm 2 m/s 743 mmHg 84%
11:00 +9°C° 0 mm 2 m/s 743 mmHg 79%
12:00 +10°C° 0 mm 3 m/s 743 mmHg 75%
13:00 +11°C° 0 mm 3 m/s 743 mmHg 70%
14:00 +11°C° 0 mm 3 m/s 743 mmHg 69%
15:00 +12°C° 0 mm 2 m/s 742 mmHg 68%
16:00 +12°C° 0 mm 2 m/s 742 mmHg 67%
17:00 +10°C° 0 mm 2 m/s 742 mmHg 72%
18:00 +10°C° 0 mm 1 m/s 742 mmHg 76%
19:00 +9°C° 0 mm 1 m/s 741 mmHg 81%
20:00 +8°C° 0 mm 1 m/s 741 mmHg 83%
21:00 +8°C° 0 mm 1 m/s 741 mmHg 86%
22:00 +7°C° 0 mm 1 m/s 741 mmHg 88%
23:00 +7°C° 0 mm 1 m/s 741 mmHg 90%

Amanhã, 14 Abril, Quarta-feira

Tempo Temperatura Precipitação Vento Pressão Humidade
00:00 +6°C° 0 mm 1 m/s 741 mmHg 91%
01:00 +5°C° 0 mm 1 m/s 740 mmHg 93%
02:00 +5°C° 0 mm 1 m/s 740 mmHg 93%
03:00 +5°C° 0 mm 1 m/s 740 mmHg 92%
04:00 +3°C° 0 mm 0 m/s 740 mmHg 92%
05:00 +4°C° 0 mm 0 m/s 740 mmHg 89%
06:00 +4°C° 0 mm 0 m/s 740 mmHg 86%
07:00 +5°C° 0 mm 0 m/s 740 mmHg 82%
08:00 +7°C° 0 mm 1 m/s 740 mmHg 73%
09:00 +9°C° 0 mm 1 m/s 739 mmHg 64%
10:00 +9°C° 0 mm 2 m/s 739 mmHg 55%
11:00 +10°C° 0 mm 2 m/s 739 mmHg 50%
12:00 +13°C° 0 mm 2 m/s 738 mmHg 46%
13:00 +14°C° 0 mm 2 m/s 738 mmHg 41%
14:00 +14°C° 0 mm 2 m/s 738 mmHg 41%
15:00 +15°C° 0 mm 2 m/s 737 mmHg 40%
16:00 +15°C° 0 mm 2 m/s 737 mmHg 39%
17:00 +14°C° 0 mm 2 m/s 737 mmHg 45%
18:00 +12°C° 0 mm 2 m/s 736 mmHg 51%
19:00 +11°C° 0 mm 1 m/s 736 mmHg 57%
20:00 +10°C° 0 mm 1 m/s 736 mmHg 60%
21:00 +9°C° 0 mm 1 m/s 736 mmHg 63%
22:00 +9°C° 0 mm 1 m/s 736 mmHg 65%
23:00 +8°C° 0 mm 1 m/s 735 mmHg 66%

Depois de amanhã, 15 Abril, Quinta-feira

Tempo Temperatura Precipitação Vento Pressão Humidade
00:00 +7°C° 0 mm 1 m/s 735 mmHg 68%
01:00 +6°C° 0 mm 0 m/s 735 mmHg 69%
02:00 +5°C° 0 mm 0 m/s 735 mmHg 68%
03:00 +5°C° 0 mm 0 m/s 735 mmHg 67%
04:00 +4°C° 0 mm 0 m/s 735 mmHg 66%
05:00 +5°C° 0 mm 0 m/s 735 mmHg 63%
06:00 +6°C° 0 mm 0 m/s 734 mmHg 60%
07:00 +7°C° 0 mm 0 m/s 734 mmHg 57%
08:00 +10°C° 0 mm 1 m/s 734 mmHg 51%
09:00 +11°C° 0 mm 1 m/s 734 mmHg 45%
10:00 +13°C° 0 mm 1 m/s 733 mmHg 38%
11:00 +15°C° 0 mm 1 m/s 733 mmHg 35%
12:00 +16°C° 0 mm 2 m/s 733 mmHg 33%
13:00 +17°C° 0 mm 2 m/s 732 mmHg 30%
14:00 +17°C° 0 mm 2 m/s 732 mmHg 29%
15:00 +18°C° 0 mm 2 m/s 731 mmHg 29%
16:00 +18°C° 0 mm 2 m/s 731 mmHg 28%
17:00 +16°C° 0 mm 2 m/s 730 mmHg 34%
18:00 +15°C° 0 mm 2 m/s 730 mmHg 40%
19:00 +13°C° 0 mm 2 m/s 729 mmHg 46%
20:00 +12°C° 0 mm 1 m/s 729 mmHg 48%
21:00 +12°C° 0 mm 1 m/s 729 mmHg 50%
22:00 +11°C° 0 mm 1 m/s 729 mmHg 53%
23:00 +10°C° 0 mm 1 m/s 728 mmHg 54%

16 Abril, Sexta-feira

Tempo Temperatura Precipitação Vento Pressão Humidade
00:00 +10°C° 0 mm 1 m/s 728 mmHg 55%
01:00 +9°C° 0 mm 1 m/s 728 mmHg 56%
02:00 +9°C° 0 mm 1 m/s 727 mmHg 56%
03:00 +9°C° 0 mm 1 m/s 727 mmHg 57%
04:00 +8°C° 0 mm 1 m/s 727 mmHg 58%
05:00 +9°C° 0 mm 1 m/s 727 mmHg 58%
06:00 +9°C° 0 mm 1 m/s 727 mmHg 57%
07:00 +9°C° 0 mm 1 m/s 726 mmHg 57%
08:00 +11°C° 0 mm 1 m/s 726 mmHg 53%
09:00 +13°C° 0 mm 2 m/s 726 mmHg 49%
10:00 +14°C° 0 mm 2 m/s 726 mmHg 45%
11:00 +15°C° 0 mm 2 m/s 726 mmHg 43%
12:00 +16°C° 0 mm 2 m/s 725 mmHg 40%
13:00 +17°C° 0 mm 2 m/s 725 mmHg 38%
14:00 +17°C° 0 mm 2 m/s 725 mmHg 37%
15:00 +17°C° 0 mm 2 m/s 725 mmHg 36%
16:00 +19°C° 0 mm 1 m/s 724 mmHg 35%
17:00 +16°C° 0 mm 1 m/s 724 mmHg 40%
18:00 +15°C° 0 mm 1 m/s 724 mmHg 45%
19:00 +14°C° 0 mm 1 m/s 724 mmHg 51%
20:00 +13°C° 0 mm 1 m/s 724 mmHg 53%
21:00 +12°C° 0 mm 1 m/s 723 mmHg 55%
22:00 +11°C° 0 mm 1 m/s 723 mmHg 57%
23:00 +9°C° 0 mm 2 m/s 724 mmHg 68%

17 Abril, Sábado

Tempo Temperatura Precipitação Vento Pressão Humidade
00:00 +8°C° 0 mm 3 m/s 724 mmHg 79%
01:00 +6°C° 0 mm 4 m/s 724 mmHg 90%
02:00 +5°C° 0 mm 3 m/s 724 mmHg 89%
03:00 +5°C° 0 mm 3 m/s 724 mmHg 88%
04:00 +6°C° 0 mm 2 m/s 724 mmHg 87%
05:00 +6°C° 0 mm 2 m/s 724 mmHg 88%
06:00 +6°C° 0 mm 2 m/s 724 mmHg 88%
07:00 +6°C° 0 mm 2 m/s 723 mmHg 89%
08:00 +6°C° 0 mm 2 m/s 723 mmHg 89%
09:00 +4°C° 0 mm 3 m/s 723 mmHg 89%
10:00 +4°C° 0 mm 3 m/s 723 mmHg 89%
11:00 +3°C° 0.1 mm 3 m/s 723 mmHg 91%
12:00 +3°C° 0.1 mm 3 m/s 724 mmHg 93%
13:00 +2°C° 0.1 mm 3 m/s 724 mmHg 95%
14:00 +2°C° 0 mm 3 m/s 724 mmHg 88%
15:00 +3°C° 0 mm 3 m/s 724 mmHg 81%
16:00 +3°C° 0 mm 3 m/s 724 mmHg 75%
17:00 +3°C° 0.1 mm 4 m/s 724 mmHg 71%
18:00 +2°C° 0.1 mm 5 m/s 724 mmHg 68%
19:00 +1°C° 0.1 mm 6 m/s 724 mmHg 65%
20:00 -1°C° 0 mm 6 m/s 725 mmHg 67%
21:00 -2°C° 0 mm 6 m/s 725 mmHg 69%
22:00 -3°C° 0 mm 6 m/s 726 mmHg 71%
23:00 -3°C° 0 mm 6 m/s 726 mmHg 68%

18 Abril, Domingo

Tempo Temperatura Precipitação Vento Pressão Humidade
00:00 -2°C° 0 mm 5 m/s 726 mmHg 65%
01:00 -4°C° 0 mm 5 m/s 726 mmHg 61%
02:00 -4°C° 0 mm 5 m/s 727 mmHg 61%
03:00 -4°C° 0 mm 5 m/s 727 mmHg 61%
04:00 -4°C° 0 mm 4 m/s 728 mmHg 61%
05:00 -4°C° 0.1 mm 5 m/s 729 mmHg 64%
06:00 -4°C° 0.1 mm 5 m/s 729 mmHg 67%
07:00 -2°C° 0.1 mm 5 m/s 730 mmHg 70%
08:00 -1°C° 0 mm 4 m/s 730 mmHg 61%
09:00 -1°C° 0 mm 4 m/s 731 mmHg 52%
10:00 +1°C° 0 mm 3 m/s 731 mmHg 42%
11:00 +2°C° 0 mm 3 m/s 731 mmHg 40%
12:00 +4°C° 0 mm 2 m/s 731 mmHg 37%
13:00 +5°C° 0 mm 2 m/s 730 mmHg 34%
14:00 +5°C° 0 mm 3 m/s 730 mmHg 33%
15:00 +5°C° 0 mm 4 m/s 730 mmHg 32%
16:00 +5°C° 0 mm 5 m/s 730 mmHg 31%
17:00 +3°C° 0 mm 5 m/s 730 mmHg 36%
18:00 +2°C° 0 mm 5 m/s 730 mmHg 40%
19:00 +1°C° 0 mm 5 m/s 731 mmHg 45%
20:00 +1°C° 0 mm 5 m/s 730 mmHg 45%
21:00 0°C° 0 mm 5 m/s 730 mmHg 45%
22:00 0°C° 0 mm 5 m/s 729 mmHg 46%
23:00 -2°C° 0 mm 6 m/s 729 mmHg 53%
Mostrar mais

Necessitamos do seu Consentimento

A Meteoprog e os seus Fornecedores de Serviços podem armazenar e aceder a dados pessoais como cookies, identificadores do dispositivo ou outras tecnologias semelhantes existentes no seu dispositivo e processar estes dados para personalizar conteúdos e anúncios, assim como funcionalidades nas redes sociais e análise de tráfego.

  • Armazenar e/ou aceder a informações no seu dispositivo

    Os cookies, identificadores do dispositivo ou outras informações podem ser armazenados ou acedidos no seu dispositivo, para os fins acima indicados.

  • Anúncios e conteúdos personalizados, medição de anúncios e conteúdos, dados sobre o público-alvo e desenvolvimento de produtos

    Os anúncios e os conteúdos podem ser personalizados com base num perfil. Podem ser adicionados dados adicionais para uma maior personalização dos anúncios e dos conteúdos. A eficácia dos anúncios e dos conteúdos pode ser medida. Podem ser obtidas informações sobre o público que visualizou os anúncios e os conteúdos. Estes dados podem ser usados para desenvolver ou melhorar sistemas, softwares ou a experiência do utilizador.

Ao clicar em "Eu concordo”, permitirá o uso de cookies, identificadores do dispositivo e web beacons mencionados ou outras tecnologias semelhantes. As configurações do navegador do seu dispositivo podem ser alteradas.

Para certos fins, podem ser invocados interesses legítimos ao invés de consentimento. Pode ler mais informação sobre este assunto na nossa Política de Privacidade e Cookies.